Regional Weather Roundup
Issued by NWS

Home | Current Version | Previous Version | Text Only | Print | Product List | Glossary Off
Versions: 1 2 3 4 5 6 7 8 9 10 11 12 13 14 15 16 17 18 19 20 21 22 23 24 25 26 27 28 29 30 31 32 33 34 35 36 37 38 39 40 41 42 43 44 45 46 47 48 49 50

000
ASUS43 KOAX 131710
RWRNE

WEATHER ROUNDUP FOR NEBRASKA
NATIONAL WEATHER SERVICE OMAHA NE
1100 AM CST WED DEC 13 2017

NOTES: SATELLITE DATA IS BEING USED TO AUGMENT CLOUD COVER ABOVE
       12000 FEET.
       "FAIR" INDICATES FEW OR NO CLOUDS BELOW 12,000 FEET WITH NO
       SIGNIFICANT WEATHER AND/OR OBSTRUCTIONS TO VISIBILITY.


NEZ001>004-019>022-054>056-131800-
NEBRASKA PANHANDLE

CITY           SKY/WX    TMP DP  RH WIND       PRES   REMARKS
SCOTTSBLUFF    SUNNY     45  15  30 W20       30.15R
ALLIANCE       SUNNY     45  16  31 NW23G35   30.06R
CHADRON        CLOUDY    44  17  33 NW25G36   30.09R
GORDON         FAIR      43  20  40 NW18G25   30.05R
KIMBALL        SUNNY     44  14  29 NW21G30   30.15R
SIDNEY         SUNNY     45  14  28 NW26      30.11S
$$

NEZ057>060-069>072-079>082-131800-
SOUTHWEST NEBRASKA

CITY           SKY/WX    TMP DP  RH WIND       PRES   REMARKS
NORTH PLATTE   SUNNY     51  17  26 NW33G48   30.01R
IMPERIAL       SUNNY     50  15  24 NW23G29   30.07R
LEXINGTON      SUNNY     53  22  30 NW23G31   29.97R
MCCOOK         SUNNY     54  18  24 NW30G46   30.01R
OGALLALA       PTSUNNY   48  15  26 NW26G32   30.05R
$$

NEZ005>010-023>029-035>040-094-131800-
NORTH CENTRAL NEBRASKA

CITY           SKY/WX    TMP DP  RH WIND       PRES   REMARKS
VALENTINE      SUNNY     45  24  43 NW25G39   29.96S
AINSWORTH      SUNNY     43  25  49 NW31G38   29.95R
BROKEN BOW     SUNNY     49  23  36 NW30G40   29.95R
O`NEILL        SUNNY     45  28  51 NW29G37   29.90R
ORD            SUNNY     48  24  39 NW32G46   29.91R
THEDFORD       SUNNY     46  22  39 NW24G37   29.99R
$$

NEZ041-046>049-061>064-073>077-083>087-131800-
SOUTH CENTRAL NEBRASKA

CITY           SKY/WX    TMP DP  RH WIND       PRES   REMARKS
GRAND ISLAND   SUNNY     50  24  36 NW30G40   29.91R
AURORA         SUNNY     50  24  35 NW31G39   29.90R
HASTINGS       SUNNY     52  22  30 NW33G44   29.92R
HEBRON         SUNNY     55  23  28 N21G29    29.89R
HOLDREGE       SUNNY     51  25  35 NW17G32   29.94R
KEARNEY        SUNNY     51  22  31 NW25G36   29.93R
YORK           SUNNY     50  27  40 NW30G37   29.86R
$$

NEZ011>018-030>034-042>045-131800-
NORTHEAST NEBRASKA

CITY           SKY/WX    TMP DP  RH WIND       PRES   REMARKS
NORFOLK        SUNNY     47  28  47 NW30G38   29.79R
ALBION         SUNNY     48  27  44 N30G40    29.86R
BLAIR          SUNNY     49  30  47 NW24G39   29.76R
COLUMBUS       SUNNY     50  27  40 NW30G37   29.83R
FREMONT        SUNNY     50  28  43 NW31G43   29.80R
TEKAMAH        SUNNY     50  29  44 NW30G48   29.76R
WAYNE          SUNNY     46  26  47 NW23G39   29.79R
$$

NEZ050>053-065>068-078-088>093-131800-
SOUTHEAST NEBRASKA

CITY           SKY/WX    TMP DP  RH WIND       PRES   REMARKS
LINCOLN        SUNNY     52  26  36 NW25G41   29.84R
OMAHA EPPLEY   MOSUNNY   51  29  42 NW31G44   29.74R
BEATRICE       SUNNY     55  27  34 NW28G41   29.84S
FALLS CITY     SUNNY     56  29  35 NW24G41   29.77R
NEBRASKA CITY  SUNNY     53  30  41 NW31G38   29.77R
PLATTSMOUTH    SUNNY     51  29  43 NW32G41   29.75R
$$

NEZ044-045-051>053-067-131800-
OMAHA AREA

CITY           SKY/WX    TMP DP  RH WIND       PRES   REMARKS
OMAHA EPPLEY   MOSUNNY   51  29  42 NW31G44   29.74R
BLAIR          SUNNY     49  30  47 NW24G39   29.76R
FREMONT        SUNNY     50  28  43 NW31G43   29.80R
MILLARD        SUNNY     52  30  43 NW20G31   29.77R
OFFUTT AFB     SUNNY     51  28  40 NW23G44   29.75R
PLATTSMOUTH    SUNNY     51  29  43 NW32G41   29.75R
WAHOO          FAIR      51  26  37 NW25G39   29.79R
$$



USA.gov is the U.S. government's official web portal to all federal, state and local government web resources and services.